Albany, GA

1:23 PM EDT on October 20, 2017 (GMT -0400)
Southwest Georgia Regional

Weather History for KABY - August, 2013

Change the Weather History Date:

Wednesday, August 7, 2013

  Actual Average Record
Temperature  
Mean Temperature 84 °F 82 °F  
Max Temperature 93 °F 92 °F 106 °F (2007)
Min Temperature 75 °F 72 °F 66 °F (1950)
Degree Days  
Heating Degree Days 0 0  
Month to date heating degree days 0 0  
Since 1 June heating degree days 0 0  
Since 1 July heating degree days 0 0  
Cooling Degree Days 19 17  
Month to date cooling degree days 127 119  
Year to date cooling degree days 1440 1565  
Since 1 June cooling degree days 1085 1125  
Growing Degree Days 33 (Base 50)    
Moisture  
Dew Point 74 °F    
Average Humidity 76    
Maximum Humidity 100    
Minimum Humidity 52    
Precipitation  
Precipitation T in 0.14 in 2.07 in (2003)
Month to date precipitation 0.11 1.09  
Year to date precipitation 33.04 31.85  
Sea Level Pressure  
Sea Level Pressure 30.01 in    
Wind  
Wind Speed 4 mph (ESE)    
Max Wind Speed 12 mph    
Max Gust Speed 14 mph    
Visibility 9 miles    
Events Thunderstorm    
T = Trace of Precipitation, MM = Missing Value Source: NWS Daily Summary

Daily Weather History Graph

Daily Weather History Graph

Search for Another Location

Airport or City:

Trip Planner

Search our weather history database for the weather conditions in past years. The results will help you decide how hot, cold, wet, or windy it might be!

Date:

Astronomy

Aug. 07, 2013 Rise Set
Actual Time 6:57 AM EDT 8:27 PM EDT
Civil Twilight 6:30 AM EDT 8:53 PM EDT
Nautical Twilight 5:59 AM EDT 9:24 PM EDT
Astronomical Twilight 5:26 AM EDT 9:57 PM EDT
Moon 7:37 AM EDT (8/7) 8:43 PM EDT (8/7)
Length of Visible Light 14h 22m
Length of Day
13h 30m
New Moon, 1% of the Moon is Illuminated
Aug 7
New Moon
Aug 14
First Quarter
Aug 20
Full
Aug 28
Last Quarter
Sep 5
New

Hourly Weather History & Observations

Time (EDT) Temp. Heat Index Dew Point Humidity Pressure Visibility Wind Dir Wind Speed Gust Speed Precip Events Conditions
12:53 AM 77.0 °F - 73.9 °F 90% 29.99 in 10.0 mi SE 4.6 mph - N/A   Clear
1:53 AM 77.0 °F - 75.0 °F 94% 29.97 in 9.0 mi SE 3.5 mph - N/A   Clear
2:53 AM 75.9 °F - 73.9 °F 94% 29.96 in 9.0 mi East 3.5 mph - N/A   Clear
3:53 AM 75.9 °F - 73.9 °F 94% 29.97 in 9.0 mi Calm Calm - N/A   Clear
4:53 AM 75.0 °F - 73.9 °F 96% 29.98 in 9.0 mi Calm Calm - N/A   Clear
5:53 AM 75.0 °F - 73.0 °F 94% 29.99 in 8.0 mi NE 3.5 mph - N/A   Clear
6:53 AM 75.0 °F - 73.9 °F 96% 30.00 in 7.0 mi East 3.5 mph - N/A   Clear
7:43 AM 75.2 °F - 75.2 °F 100% 30.02 in 5.0 mi East 3.5 mph - N/A   Scattered Clouds
7:53 AM 75.9 °F - 75.0 °F 97% 30.02 in 5.0 mi East 4.6 mph - N/A   Mostly Cloudy
8:53 AM 78.1 °F - 75.9 °F 93% 30.04 in 7.0 mi SE 3.5 mph - N/A   Mostly Cloudy
9:39 AM 80.6 °F 86.2 °F 75.2 °F 84% 30.05 in 9.0 mi SE 4.6 mph - N/A   Mostly Cloudy
9:53 AM 81.0 °F 86.7 °F 75.0 °F 82% 30.05 in 9.0 mi South 8.1 mph - N/A   Overcast
10:46 AM 84.2 °F 92.3 °F 75.2 °F 74% 30.05 in 9.0 mi SSE 8.1 mph - N/A   Scattered Clouds
10:53 AM 84.0 °F 91.9 °F 75.0 °F 74% 30.04 in 9.0 mi SSE 8.1 mph - N/A   Scattered Clouds
11:05 AM 84.2 °F 90.9 °F 73.4 °F 70% 30.05 in 10.0 mi SSE 8.1 mph - N/A   Mostly Cloudy
11:53 AM 86.0 °F 93.8 °F 73.9 °F 67% 30.05 in 10.0 mi SE 3.5 mph - N/A   Mostly Cloudy
11:59 AM 87.8 °F 95.6 °F 73.4 °F 62% 30.05 in 10.0 mi ESE 5.8 mph - N/A   Mostly Cloudy
12:53 PM 88.0 °F 96.5 °F 73.9 °F 63% 30.04 in 10.0 mi SE 6.9 mph - N/A   Mostly Cloudy
1:53 PM 88.0 °F 95.6 °F 73.0 °F 61% 30.03 in 10.0 mi Calm Calm - N/A   Mostly Cloudy
2:53 PM 90.0 °F 97.9 °F 73.0 °F 57% 30.00 in 10.0 mi SSW 6.9 mph - N/A   Scattered Clouds
3:05 PM 91.4 °F 100.1 °F 73.4 °F 55% 30.00 in 10.0 mi SE 4.6 mph - N/A   Mostly Cloudy
3:53 PM 91.0 °F 99.3 °F 73.0 °F 55% 29.97 in 10.0 mi SE 5.8 mph - N/A   Mostly Cloudy
4:53 PM 91.0 °F 98.2 °F 72.0 °F 53% 29.97 in 10.0 mi East 3.5 mph - N/A   Partly Cloudy
5:53 PM 82.9 °F 90.8 °F 75.9 °F 79% 29.98 in 10.0 mi North 5.8 mph - N/A   Overcast
6:22 PM 82.4 °F 89.5 °F 75.2 °F 79% 29.98 in 10.0 mi Variable 3.5 mph - 0.00 in Thunderstorm Overcast
6:53 PM 82.9 °F 88.8 °F 73.0 °F 72% 29.96 in 10.0 mi East 4.6 mph - 0.00 in Thunderstorm Overcast
7:53 PM 82.9 °F 87.5 °F 71.1 °F 67% 29.98 in 10.0 mi NE 4.6 mph - N/A   Overcast
8:53 PM 82.0 °F 87.4 °F 73.0 °F 74% 29.98 in 10.0 mi Calm Calm - N/A   Clear
9:53 PM 81.0 °F 86.2 °F 73.9 °F 79% 30.01 in 10.0 mi Calm Calm - N/A   Clear
10:53 PM 81.0 °F 86.7 °F 75.0 °F 82% 30.02 in 10.0 mi ENE 4.6 mph - N/A   Overcast
11:53 PM 79.0 °F - 75.9 °F 90% 30.02 in 10.0 mi Calm Calm - N/A   Partly Cloudy